Flag for Australia Weather past 2 weeks in Lord Howe Island, Lord Howe Island, Australia

Now
57 °F

Cool.


Feels Like: 57 °F
Forecast: 62 / 66 °F
Wind: No wind

Location: Lord Howe Island

Current Time: Oct 24, 2014 at 2:54:24 AM

Latest Report: Oct 24, 2014 at 2:00 AM


Visibility: N/A

Pressure: 30.22 "Hg

Humidity: 84%

Dew point: 53 °F

Location of Lord Howe IslandLocation

Historic Weather in Lord Howe Island — Graph

°F

Lord Howe Island temperature yesterday

Maximum temperature yesterday: 69 °F (at 3:00 PM)
Minimum temperature yesterday: 60 °F (at 5:00 AM)
Average temperature yesterday: 63 °F

Past Weeks' High & Low Weather Summary

 TemperatureHumidityPressure
High71 °F (Oct 15, 3:00 PM)94% (Oct 17, 2:00 AM)30.37 "Hg (Oct 17, 2:00 AM)
Low51 °F (Oct 20, 6:00 AM)44% (Oct 22, 12:00 AM)29.86 "Hg (Oct 15, 5:00 AM)
Average64 °F64%30.16 "Hg
* Reported Midnight between Oct 8 and Oct 9 — Midnight between Oct 23 and Oct 24, Lord Howe Island, Weather by CustomWeather, © 2014

Note: Actual official high and low records may vary slightly from our data, if they occured in-between our weather recording intervals... More about our weather records

Advertising

Lord Howe Island weather history for previous 24 hours

 ConditionsComfort  
Time TempWeatherWind HumidityBarometerVisibility
12:00 AM
Oct 24
63 °FOvercast.6 mph64%30.23 "HgN/A
11:00 PM
Oct 23
61 °FCool.3 mph73%30.23 "HgN/A
9:00 PM62 °FCool.5 mph66%30.22 "HgN/A
8:00 PM62 °FCool.6 mph65%30.20 "HgN/A
6:00 PM64 °FMild.8 mph64%30.16 "HgN/A
5:00 PM66 °FMild.13 mph57%30.16 "HgN/A
3:00 PM69 °FPartly sunny.6 mph50%30.15 "Hg19 mi
2:00 PM66 °FMild.8 mph55%30.17 "HgN/A
12:00 PM66 °FOvercast.7 mph59%30.20 "Hg19 mi
11:00 AM65 °FMild.7 mph64%30.22 "HgN/A
9:00 AM65 °FPartly sunny.No wind58%30.22 "Hg19 mi
8:00 AM64 °FMild.No wind62%30.21 "HgN/A
6:00 AM61 °FPassing clouds.5 mph68%30.18 "Hg19 mi
5:00 AM60 °FCool.5 mph69%30.17 "HgN/A
3:00 AM61 °FPassing clouds.6 mph67%30.17 "HgN/A
2:00 AM62 °FCool.8 mph70%30.19 "HgN/A
Weather by CustomWeather, © 2014

See weather overviewHow to use our weather pages